Погода в Селиваново

Россия / Калужская область     54°07′37″N   35°31′51″E
темп.,
°C
ветер,
м/с
пор.,
м/с
влажн.,
%
обл.,
%
осадки,
мм/ч
давл.,
гПа
погр.,
м
27 июля, вт
вт2700:00+18зюз347920 0.0 102263
03:00+16зюз11870 0.4 102211
06:00+17юз338822 0.9 102153
09:00+22юз22715 0.9 1021354
12:00+27юз33501 0.0 10201225
15:00+28зюз244062 0.0 10192298
18:00+28ююз2346100 0.0 1018839
21:00+20ююз227399 0.2 101831
28 июля, ср
ср2800:00+18зюз2277100 0.0 101821
03:00+19юв3473100 0.1 101760
06:00+18ююв357890 0.1 101696
09:00+21ююв4768100 0.1 1015313
12:00+19ююв51276100 0.3 1014601
15:00+21ю71175100 1.3 1013880
18:00+19ю61293100 3.1 1010500
21:00+18юз4797100 6.9 1010180
29 июля, чт
чт2900:00+17зюз37974 0.1 1010152
03:00+17зюз379857 0.1 1009151
06:00+17з399773 0.0 1009215
09:00+21зсз4680100 0.0 1009400
12:00+24з5666100 0.4 1009764
15:00+27з574537 0.4 10082307
18:00+26з475510 0.0 1007540
21:00+20з497799 0.1 1008178
30 июля, пт
пт3000:00+18зсз3480100 0.0 100864
03:00+16зсз349112 0.0 100962
06:00+17з23921 0.0 100983
09:00+23з34680 0.0 1009490
12:00+26зюз44552 0.0 10081396
15:00+26зюз56595 1.7 10081207
18:00+24зсз476554 0.4 1008521
21:00+20юз22753 0.4 100713
31 июля, сб
сб3100:00+19юз3573100 0.0 100865
03:00+17юз3682100 0.0 100891
06:00+17юз497899 0.0 1008202
09:00+20юз4768100 0.0 1008290
12:00+23зюз475786 0.0 1008754
15:00+26зюз6950100 0.0 10071522
18:00+24зюз586397 0.0 1007855
21:00+19ююз47845 0.0 1007115